Regional Weather Roundup
Issued by NWS

Home | Current Version | Previous Version | Text Only | Print | Product List | Glossary Off
Versions: 1 2 3 4 5 6 7 8 9 10 11 12 13 14 15 16 17 18 19 20 21 22 23 24 25 26 27 28 29 30 31 32 33 34 35 36 37 38 39 40 41 42 43 44 45 46 47 48 49 50

000
ASUS43 KBIS 180301
RWRND

NORTH DAKOTA REGIONAL WEATHER ROUNDUP
NATIONAL WEATHER SERVICE BISMARCK ND
1000 PM CDT FRI APR 17 2015

NOTE: "FAIR" INDICATES FEW OR NO CLOUDS BELOW 12,000 FEET WITH NO
SIGNIFICANT WEATHER AND/OR OBSTRUCTIONS TO VISIBILITY.


NDZ001>003-009>011-017-180400-
NORTHWEST NORTH DAKOTA

CITY           SKY/WX    TMP DP  RH WIND       PRES   REMARKS
WILLISTON      CLEAR     56  24  29 NE9       30.07R
MINOT          CLEAR     42  23  46 N6        30.11S
MINOT AFB      CLEAR     52  26  37 NE3       30.11R
$$

NDZ018>021-031>035-040>046-180400-
SOUTHWEST NORTH DAKOTA

CITY           SKY/WX    TMP DP  RH WIND       PRES   REMARKS
BISMARCK       PTCLDY    53  30  41 NE9       30.09R
DICKINSON      PTCLDY    49  22  34 S7        30.07R
GARRISON         N/A     53  29  39 NE7       30.09R
HETTINGER ARPT CLOUDY    53  21  28 E5        30.10R
$$

NDZ004>008-012>016-024-026-027-054-180400-
NORTHEAST NORTH DAKOTA

CITY           SKY/WX    TMP DP  RH WIND       PRES   REMARKS
GRAND FORKS    CLEAR     45  29  53 NE7       30.11R
GRND FRKS AFB  CLEAR     46  25  44 NE10      30.12R
DEVILS LAKE    CLEAR     48  25  40 NE12      30.13R
$$

NDZ022-023-025-028>030-036>039-047>053-180400-
SOUTHEAST NORTH DAKOTA

CITY           SKY/WX    TMP DP  RH WIND       PRES   REMARKS
FARGO          CLEAR     58  17  20 N12       30.07R
JAMESTOWN      PTCLDY    55  26  32 NE16      30.09R
$$



USA.gov is the U.S. government's official web portal to all federal, state and local government web resources and services.